Terug naar catalogus

FENGYUN 1C DEB

ActiefLEO
NORAD 30153·DEBRIS·🇨🇳 China

Gelanceerd May 10, 1999 vanaf Taiyuan Satellite Launch Center

Loading…

Volgende Passages (komende 24 uur)

TLE

VersSource: Space-Track

Epoch: Sep 14, 2026, 00:08 UTC

1 30153U 99025TJ  26257.00575766  .00000465  00000-0  43534-3 0  9992
2 30153 100.4683 281.1389 0198639  26.5249   3.6360 13.79306192985698

Volg FENGYUN 1C DEB in realtime met AllMySat

Download on the App Store